This is the latest recevied weather packets stored in our database for station/object PY2VE-13. If no packets are shown the sender has not sent any weather packets the latest 10 day(s).
| Time | Temp. | Humidity | Pressure | Rain* | Wind** | Luminosity | Snow |
|---|---|---|---|---|---|---|---|
| 1777457016 | 22.78° C | 76% | 1021.3 hPa | - | - | - | - |
| 1777456116 | 24.44° C | 70% | 1020.8 hPa | - | - | - | - |
| 1777455216 | 25° C | 67% | 1020.2 hPa | - | - | - | - |
| 1777454316 | 23.89° C | 72% | 1020.4 hPa | - | - | - | - |
| 1777453416 | 23.89° C | 71% | 1020 hPa | - | - | - | - |
| 1777452516 | 25.56° C | 66% | 1019.5 hPa | - | - | - | - |
| 1777451616 | 25° C | 68% | 1019.4 hPa | - | - | - | - |
| 1777450716 | 23.89° C | 71% | 1019.5 hPa | - | - | - | - |
| 1777449816 | 25.56° C | 66% | 1019.2 hPa | - | - | - | - |
| 1777448916 | 25° C | 67% | 1019.1 hPa | - | - | - | - |
| 1777448016 | 25.56° C | 68% | 1019.2 hPa | - | - | - | - |
| 1777447116 | 25° C | 68% | 1019.2 hPa | - | - | - | - |
| 1777446216 | 25° C | 68% | 1019.2 hPa | - | - | - | - |
| 1777445316 | 25° C | 70% | 1019.6 hPa | - | - | - | - |
| 1777444416 | 24.44° C | 71% | 1019.7 hPa | - | - | - | - |
| 1777443516 | 23.33° C | 77% | 1020 hPa | - | - | - | - |
| 1777442616 | 25° C | 70% | 1019.7 hPa | - | - | - | - |
| 1777441716 | 25° C | 71% | 1019.9 hPa | - | - | - | - |
| 1777440816 | 23.89° C | 74% | 1020.2 hPa | - | - | - | - |
| 1777439916 | 23.89° C | 75% | 1020.4 hPa | - | - | - | - |
| 1777439016 | 23.89° C | 75% | 1020.6 hPa | - | - | - | - |
| 1777438116 | 23.89° C | 73% | 1020.6 hPa | - | - | - | - |
| 1777437216 | 25° C | 68% | 1020.4 hPa | - | - | - | - |
| 1777436316 | 24.44° C | 71% | 1020.6 hPa | - | - | - | - |
| 1777435416 | 24.44° C | 71% | 1020.8 hPa | - | - | - | - |
* Rain since midnight (hover to see other rain measurements)
** Current wind speed in m/s (hover to see current wind gust speed)